Weather observations for the past three days for
Okeechobee County Airport
Imperial (Metric)
Date Time (edt) Wind (mph) Vis. (mi.) Weather Sky Cond. Temperature (ºF) Relative Humidity Wind Chill (°F) Heat Index (°F) Pressure Precipitation (in)
Air Dwpt 6 hour altimeter (in) sea level (mb) 1 hr 3 hr 6 hr
Max. Min.
24 10:35 S 8 10.00 Mostly Cloudy FEW025 SCT045 BKN055 86 -27.4 1% 83 30.19 0.0
24 10:15 S 7 10.00 Mostly Cloudy FEW022 SCT030 BKN055 86 -27.4 1% 83 30.19 0.0
24 09:55 Vrbl 7 10.00 Mostly Cloudy BKN022 BKN031 BKN050 87.8 -25.6 1% 85 30.19 0.0
24 09:35 SE 8 10.00 Partly Cloudy FEW020 SCT027 87.8 71.6 59% 94 30.19 0.0
24 09:15 Vrbl 7 10.00 Fair CLR 87.8 73.4 62% 96 30.18 0.0
24 08:55 Vrbl 5 10.00 Fair CLR 86 73.4 66% 93 30.18 0.0
24 08:35 Vrbl 5 10.00 Fair CLR 84.2 75.2 74% 92 30.18 0.0
24 08:15 Vrbl 3 10.00 Fair CLR 82.4 75.2 79% 89 30.17 0.0
24 07:55 Calm 10.00 Fair CLR 80.6 80.6 100% 89 30.17 0.0
24 07:35 Calm 10.00 Fair CLR 78.8 78.8 100% 83 30.17 0.0
24 07:15 Calm 9.00 Fair CLR 78.8 78.8 100% 83 30.16 0.0
24 06:55 Calm 9.00 Fair CLR 77 77 100% 78 30.16 0.0
24 06:35 Calm 8.00 Fair CLR 77 77 100% 78 30.16 0.0
24 06:15 Calm 7.00 Fair CLR 77 77 100% 78 30.16 0.0
24 05:55 Calm 8.00 Fair CLR 77 77 100% 78 30.16 0.0
24 05:35 Calm 8.00 Fair CLR 77 77 100% 78 30.16 0.0
24 05:15 Calm 9.00 Fair CLR 77 77 100% 78 30.15 0.0
24 04:55 Calm 9.00 Fair CLR 77 77 100% 78 30.15 0.0
24 04:35 Calm 9.00 Fair CLR 77 77 100% 78 30.15 0.0
24 04:15 Calm 7.00 Fair CLR 77 77 100% 78 30.14 0.0
24 03:55 Calm 8.00 Fair CLR 77 77 100% 78 30.14 0.0
24 03:35 Calm 9.00 A Few Clouds FEW047 77 69.8 79% 79 30.15 0.0
24 03:15 Calm 9.00 Fair CLR 77 59 54% 79 30.15 0.0
24 02:55 Calm 10.00 Fair CLR 77 44.6 32% 78 30.15 0.0
24 02:35 Calm 9.00 Fair CLR 77 21.2 12% 76 30.16 0.0
24 02:15 Calm 10.00 Fair CLR 77 -22 1% 75 30.16 0.0
24 01:55 Calm 10.00 Fair CLR 78.8 -31 1% 77 30.16 0.0
24 01:15 Calm 10.00 A Few Clouds FEW042 FEW060 78.8 -31 1% 77 30.17 0.0
24 00:55 Calm 10.00 A Few Clouds FEW055 78.8 -31 1% 77 30.18 0.0
24 00:35 Calm 10.00 Fair CLR 78.8 -31 1% 77 30.18 0.0
24 00:15 Calm 10.00 Partly Cloudy SCT049 78.8 -31 1% 77 30.18 0.0
23 23:55 Calm 10.00 A Few Clouds FEW050 FEW060 78.8 -31 1% 77 30.18 0.0
23 23:35 Calm 10.00 Fair CLR 78.8 -29.2 1% 77 30.18 0.0
23 23:15 Calm 9.00 Fair CLR 80.6 -31 1% 78 30.18 0.0
23 22:55 Calm 9.00 Fair CLR 80.6 -31 1% 78 30.17 0.0
23 22:35 Calm 10.00 A Few Clouds FEW060 80.6 -31 1% 78 30.16 0.0
23 22:15 Calm 10.00 Mostly Cloudy BKN060 80.6 -31 1% 78 30.14 0.0
23 21:55 Calm 10.00 Partly Cloudy FEW050 SCT060 80.6 -29.2 1% 78 30.15 0.0
23 21:35 Calm 10.00 Fair CLR 80.6 -29.2 1% 78 30.14 0.0
23 21:15 Calm 10.00 Partly Cloudy SCT049 80.6 -29.2 1% 78 30.13 0.0
23 20:55 Calm 10.00 Mostly Cloudy BKN049 82.4 -29.2 1% 80 30.13 0.0
23 20:35 Calm 10.00 Fair CLR 82.4 -29.2 1% 80 30.13 0.0
23 20:15 Calm 10.00 Fair CLR 82.4 -29.2 1% 80 30.12 0.0
23 19:55 Calm 10.00 Fair CLR 82.4 -29.2 1% 80 30.11 0.0
23 19:35 SE 5 10.00 Fair CLR 84.2 -29.2 1% 82 30.1 0.0
23 19:15 S 6 10.00 Fair CLR 84.2 -27.4 1% 82 30.1 0.0
23 18:55 S 8 10.00 Fair CLR 86 -27.4 1% 83 30.1 0.0
23 18:35 S 9 G 15 10.00 Fair CLR 86 -25.6 1% 83 30.1 0.0
23 18:15 SE 10 10.00 Fair CLR 87.8 -25.6 1% 85 30.09 0.0
23 17:55 SE 14 G 21 10.00 A Few Clouds FEW024 FEW120 87.8 -25.6 1% 85 30.08 0.0
23 17:35 SE 14 G 20 10.00 A Few Clouds FEW025 FEW100 FEW120 89.6 -23.8 1% 86 30.09 0.0
23 17:15 SE 8 G 17 10.00 A Few Clouds FEW025 FEW100 89.6 -23.8 1% 86 30.1 0.0
23 16:55 SE 10 G 17 10.00 Fair CLR 91.4 -23.8 1% 88 30.1 0.0
23 16:35 SE 9 G 16 10.00 Thunderstorm in Vicinity CLR 89.6 -23.8 1% 86 30.1 0.0
23 16:15 SE 8 G 16 10.00 Fair CLR 89.6 -23.8 1% 86 30.1 0.0
23 15:55 SE 8 G 15 10.00 Fair CLR 89.6 -25.6 1% 86 30.11 0.0
23 15:35 S 10 G 16 10.00 Fair CLR 87.8 -25.6 1% 85 30.1 0.0
23 15:15 SE 8 10.00 Fair CLR 86 -25.6 1% 83 30.1 0.0
23 14:55 S 9 G 17 10.00 A Few Clouds FEW024 86 -27.4 1% 83 30.11 0.0 0.07
23 14:35 S 12 G 18 1.00 Thunderstorm in Vicinity Rain Haze FEW002 SCT024 BKN038 82.4 -29.2 1% 80 30.12 0.0
23 14:15 NE 8 10.00 Thunderstorm in Vicinity CLR 89.6 -23.8 1% 86 30.13 0.0
23 13:55 E 10 G 20 10.00 Thunderstorm in Vicinity FEW047 FEW055 FEW090 91.4 -22 1% 88 30.12 0.0
23 13:35 SE 9 G 16 10.00 Thunderstorm in Vicinity SCT045 SCT055 93.2 -22 1% 89 30.12 0.0
23 13:15 S 6 10.00 Thunderstorm in Vicinity CLR 93.2 -22 1% 89 30.12 0.0
23 12:55 S 6 10.00 Thunderstorm in Vicinity CLR 93.2 -22 1% 89 30.12 0.0
23 12:35 S 6 10.00 Fair CLR 93.2 -22 1% 89 30.13 0.0
23 12:15 Vrbl 5 10.00 Fair CLR 91.4 -23.8 1% 88 30.13 0.0
23 11:55 Calm 10.00 Fair CLR 91.4 -23.8 1% 88 30.13 0.0
23 11:35 Vrbl 6 10.00 Fair CLR 91.4 -23.8 1% 88 30.13 0.0
23 11:15 S 7 10.00 Fair CLR 89.6 -23.8 1% 86 30.13 0.0
23 10:55 Vrbl 5 10.00 Fair CLR 89.6 -23.8 1% 86 30.13 0.0
23 10:35 Calm 10.00 Fair CLR 89.6 -25.6 1% 86 30.14 0.0
23 10:15 S 5 10.00 Fair CLR 89.6 -23.8 1% 86 30.14 0.0
23 09:55 Vrbl 3 10.00 Fair CLR 87.8 -25.6 1% 85 30.14 0.0
23 09:35 Calm 10.00 Fair CLR 87.8 -25.6 1% 85 30.14 0.0
23 09:15 S 5 10.00 Fair CLR 86 -27.4 1% 83 30.14 0.0
23 08:55 Calm 10.00 Fair CLR 86 -27.4 1% 83 30.14 0.0
23 08:15 Calm 10.00 Fair CLR 82.4 -27.4 1% 80 30.13 0.0
23 07:55 Calm 10.00 Fair CLR 80.6 75.2 84% 86 30.12 0.0
23 07:35 Calm 10.00 Fair CLR 77 77 100% 78 30.11 0.0
23 07:15 Calm 10.00 Fair CLR 77 77 100% 78 30.11 0.0
23 06:55 E 3 10.00 Fair CLR 77 77 100% 78 30.1 0.0
23 06:35 Calm 10.00 Fair CLR 77 77 100% 78 30.1 0.0
23 06:15 Calm 9.00 A Few Clouds FEW018 77 77 100% 78 30.09 0.0
23 05:55 Calm 9.00 A Few Clouds FEW017 77 77 100% 78 30.09 0.0
23 05:35 Calm 9.00 A Few Clouds FEW014 77 77 100% 78 30.08 0.0
23 05:15 Calm 10.00 Fair CLR 77 77 100% 78 30.07 0.0
23 04:55 Calm 9.00 Fair CLR 77 77 100% 78 30.07 0.0
23 04:35 Calm 9.00 Fair CLR 77 77 100% 78 30.06 0.0
23 04:15 Calm 9.00 Fair CLR 77 77 100% 78 30.06 0.0
23 03:55 Calm 8.00 Fair CLR 77 77 100% 78 30.07 0.0
23 03:35 Calm 9.00 Fair CLR 77 77 100% 78 30.06 0.0
23 03:15 Calm 10.00 Fair CLR 75.2 75.2 100% 73 30.07 0.0
23 02:35 Calm 9.00 Fair CLR 77 77 100% 78 30.07 0.0
23 02:15 Calm 10.00 Fair CLR 75.2 75.2 100% 73 30.07 0.0
23 01:55 Calm 9.00 Fair CLR 77 77 100% 78 30.08 0.0
23 01:35 Calm 10.00 Fair CLR 77 77 100% 78 30.08 0.0
23 01:15 Calm 10.00 A Few Clouds FEW018 77 75.2 94% 78 30.08 0.0
23 00:55 Calm 10.00 Partly Cloudy SCT017 77 73.4 89% 78 30.08 0.0
23 00:35 Calm 10.00 Partly Cloudy FEW018 SCT120 75.2 35.6 24% 76 30.08 0.0
23 00:15 Calm 10.00 Mostly Cloudy SCT017 BKN120 77 -32.8 1% 75 30.07 0.0
22 23:55 Calm 10.00 Fair CLR 75.2 -32.8 1% 73 30.07 0.0
22 23:35 Calm 10.00 Fair CLR 75.2 -32.8 1% 73 30.06 0.0
22 23:15 Calm 10.00 Fair CLR 77 -32.8 1% 75 30.06 0.0
22 22:55 SW 3 10.00 Fair CLR 77 -32.8 1% 75 30.06 0.0
22 22:15 Calm 10.00 Fair CLR 77 -32.8 1% 75 30.07 0.0
22 21:55 Calm 10.00 Fair CLR 77 -32.8 1% 75 30.06 0.0
22 21:35 S 3 10.00 Fair CLR 77 -32.8 1% 75 30.06 0.0
22 21:15 S 3 10.00 Fair CLR 77 -32.8 1% 75 30.06 0.0
22 20:55 Calm 10.00 Fair CLR 77 -31 1% 75 30.06 0.0
22 20:35 Calm 8.00 Fair CLR 77 -32.8 1% 75 30.06 0.0
22 20:15 S 5 10.00 Fair CLR 77 -31 1% 75 30.05 0.0
22 19:55 Calm 10.00 Fair CLR 77 -32.8 1% 75 30.05 0.0
22 19:35 Calm 10.00 Fair CLR 77 -31 1% 75 30.04 0.0
22 19:15 Calm 10.00 Fair CLR 77 -31 1% 75 30.02 0.0
22 18:55 Calm 10.00 Fair CLR 77 -32.8 1% 75 30.01 0.0
22 18:35 Calm 10.00 Fair CLR 77 -31 1% 75 30.01 0.0
22 18:15 Calm 10.00 Fair CLR 77 -31 1% 75 30.01 0.0
22 17:55 W 7 10.00 A Few Clouds FEW005 77 -32.8 1% 75 30.02 0.0 0.01
22 17:35 W 8 10.00 A Few Clouds FEW005 77 -32.8 1% 75 30.03 0.0
22 17:15 W 6 G 13 9.00 Thunderstorm in Vicinity Rain CLR 77 -31 1% 75 30.02 0.0
22 16:55 W 7 6.00 Thunderstorm in Vicinity Rain Haze FEW028 FEW039 FEW060 77 -32.8 1% 75 30.04 0.0 0.06
22 16:35 S 5 4.00 Thunderstorm in Vicinity Rain Haze SCT025 BKN029 BKN040 77 -32.8 1% 75 30.04 0.0
22 16:15 NE 5 9.00 Thunderstorm in Vicinity Rain SCT024 BKN060 BKN070 77 -32.8 1% 75 30.05 0.0
22 15:55 Vrbl 5 10.00 Thunderstorm FEW043 BKN065 BKN090 77 -31 1% 75 30.04 0.0 0.03
22 15:35 Vrbl 7 10.00 Thunderstorm in Vicinity FEW021 SCT034 BKN050 78.8 -31 1% 77 30.05 0.0
22 15:15 E 10 G 23 9.00 Thunderstorm in Vicinity Rain FEW022 SCT028 BKN035 80.6 -29.2 1% 78 30.03 0.0
22 14:55 E 8 10.00 Thunderstorm in Vicinity Rain SCT036 BKN043 BKN049 89.6 -23.8 1% 86 30.01 0.0
22 14:35 SE 3 10.00 Thunderstorm SCT034 BKN046 BKN050 91.4 -23.8 1% 88 30.01 0.0
22 14:15 Calm 10.00 Thunderstorm in Vicinity CLR 93.2 -22 1% 89 30.01 0.0
22 13:55 Calm 10.00 Thunderstorm in Vicinity CLR 91.4 -22 1% 88 30.01 0.0
22 13:35 SW 6 10.00 Partly Cloudy FEW065 SCT080 91.4 -23.8 1% 88 30.03 0.0
22 13:15 Vrbl 3 10.00 A Few Clouds FEW029 FEW046 FEW060 89.6 -23.8 1% 86 30.03 0.0
22 12:55 Vrbl 5 10.00 Fair CLR 91.4 -22 1% 88 30.03 0.0
22 12:35 SW 7 10.00 Fair CLR 91.4 -22 1% 88 30.05 0.0
22 12:15 Calm 10.00 Fair CLR 89.6 -25.6 1% 86 30.05 0.0
22 11:55 Calm 10.00 Fair CLR 87.8 -25.6 1% 85 30.04 0.0
22 11:35 N 6 10.00 Fair CLR 86 -27.4 1% 83 30.05 0.0
22 11:15 NW 8 10.00 Fair CLR 82.4 -29.2 1% 80 30.06 0.0
22 10:55 W 8 G 15 9.00 Light Rain SCT018 SCT026 BKN030 80.6 -31 1% 78 30.06 0.0 0.01
22 10:35 W 14 10.00 Thunderstorm in Vicinity Rain BKN018 BKN025 OVC042 82.4 66.2 58% 85 30.06 0.0
22 10:15 Vrbl 5 10.00 Thunderstorm in Vicinity FEW016 SCT020 BKN043 86 68 55% 89 30.05 0.0
22 09:55 Calm 10.00 Thunderstorm in Vicinity SCT016 SCT021 SCT033 87.8 68 52% 91 30.05 0.0
22 09:35 Calm 10.00 Thunderstorm in Vicinity FEW014 87.8 51.8 29% 85 30.05 0.0
22 09:15 Calm 10.00 Thunderstorm in Vicinity CLR 86 -27.4 1% 83 30.05 0.0
22 08:55 Calm 10.00 Thunderstorm in Vicinity CLR 82.4 82.4 100% 96 30.04 0.0
22 08:35 Calm 10.00 Fair CLR 80.6 80.6 100% 89 30.04 0.0
22 08:15 Calm 10.00 Fair CLR 78.8 78.8 100% 83 30.04 0.0
22 07:55 Calm 10.00 Fair CLR 78.8 78.8 100% 83 30.03 0.0
22 07:35 Calm 9.00 Fair CLR 78.8 78.8 100% 83 30.02 0.0
22 07:15 Calm 10.00 Fair CLR 77 77 100% 78 30 0.0
22 06:55 NE 3 9.00 Fair CLR 77 77 100% 78 30 0.0
22 06:35 Calm 10.00 Fair CLR 77 77 100% 78 30 0.0
22 06:15 E 3 9.00 Fair CLR 77 77 100% 78 30 0.0
22 05:55 Calm 10.00 Fair CLR 77 77 100% 78 30 0.0
22 05:35 Calm 9.00 Fair CLR 77 77 100% 78 30 0.0
22 05:15 Calm 10.00 Fair CLR 77 77 100% 78 29.99 0.0
22 04:55 NE 3 9.00 Fair CLR 77 77 100% 78 29.99 0.0
22 04:35 Calm 10.00 Fair CLR 77 73.4 89% 78 30 0.0
22 04:15 Calm 10.00 Fair CLR 77 39.2 26% 77 30 0.0
22 03:55 Calm 10.00 Fair CLR 77 -31 1% 75 30 0.0
22 03:35 Calm 0.50 Sky Obscured with Haze VV005 77 -32.8 1% 75 30.01 0.0
22 03:15 Calm 10.00 Fair CLR 77 -31 1% 75 30.01 0.0
22 02:55 Calm 10.00 Fair CLR 77 -31 1% 75 30.03 0.0
22 02:35 Calm 10.00 Fair CLR 77 -32.8 1% 75 30.03 0.0
22 02:15 Calm 9.00 Fair CLR 77 -20.2 2% 75 30.04 0.0
22 01:55 Calm 10.00 Fair CLR 77 77 100% 78 30.04 0.0
22 01:35 Calm 10.00 Fair CLR 78.8 78.8 100% 83 30.05 0.0
22 01:15 Calm 10.00 Fair CLR 77 66.2 69% 79 30.05 0.0
22 00:55 Calm 10.00 Fair CLR 78.8 62.6 58% 80 30.05 0.0
22 00:35 Calm 10.00 Fair CLR 78.8 60.8 54% 80 30.06 0.0
22 00:15 Calm 10.00 Fair CLR 78.8 59 51% 80 30.06 0.0
21 23:55 NE 3 10.00 Fair CLR 78.8 57.2 48% 80 30.06 0.0
21 23:35 Calm 10.00 A Few Clouds FEW049 80.6 57.2 45% 81 30.06 0.0
21 23:15 E 5 10.00 A Few Clouds FEW049 FEW060 80.6 55.4 42% 81 30.05 0.0
21 22:55 NE 3 10.00 A Few Clouds FEW050 78.8 55.4 45% 79 30.06 0.0
21 22:35 Calm 10.00 Partly Cloudy SCT050 80.6 53.6 39% 80 30.06 0.0
21 22:15 E 3 8.00 Partly Cloudy SCT050 80.6 53.6 39% 80 30.05 0.0
21 21:55 Calm 10.00 Fair CLR 80.6 51.8 37% 80 30.06 0.0
21 21:35 Calm 10.00 Fair CLR 80.6 51.8 37% 80 30.05 0.0
21 21:15 Calm 9.00 Light Rain CLR 82.4 50 32% 81 30.04 0.0
21 20:55 E 3 10.00 Fair CLR 82.4 50 32% 81 30.04 0.0
21 20:35 Calm 10.00 Fair CLR 84.2 48.2 29% 82 30.03 0.0
21 20:15 Vrbl 3 10.00 Fair CLR 84.2 46.4 27% 82 30.02 0.0
21 19:55 Calm 10.00 Fair CLR 86 44.6 24% 83 30.02 0.0
21 19:35 Vrbl 5 10.00 Fair CLR 87.8 42.8 21% 84 30.01 0.0
21 19:15 Vrbl 6 G 13 10.00 Fair CLR 87.8 44.6 22% 85 30.01 0.0
21 18:55 Vrbl 6 G 16 10.00 Fair CLR 87.8 41 19% 84 30 0.0
21 18:35 Vrbl 7 G 14 10.00 A Few Clouds FEW035 89.6 33.8 14% 86 29.99 0.0
21 18:15 Vrbl 5 G 14 10.00 A Few Clouds FEW036 FEW042 91.4 39.2 16% 87 29.99 0.0
21 17:55 E 8 G 20 10.00 Thunderstorm in Vicinity SCT040 SCT046 91.4 39.2 16% 87 29.99 0.0
21 17:35 SE 10 G 16 10.00 Partly Cloudy FEW041 SCT046 91.4 24.8 9% 87 29.99 0.0
21 17:15 E 9 G 16 10.00 Fair CLR 93.2 24.8 8% 89 29.99 0.0
21 16:55 E 10 G 16 10.00 Fair CLR 93.2 3.2 3% 89 29.99 0.0
21 16:35 E 9 G 17 10.00 Partly Cloudy SCT049 SCT060 93.2 -22 1% 89 30 0.0
21 16:15 E 8 10.00 Mostly Cloudy SCT050 BKN060 93.2 -22 1% 89 30 0.0
21 15:55 Calm 5.00 Overcast with Haze BKN047 OVC060 91.4 -23.8 1% 88 30 0.0
21 15:35 W 7 10.00 Thunderstorm in Vicinity BKN046 BKN060 BKN070 91.4 -23.8 1% 88 30.01 0.0
21 15:15 NW 7 10.00 Thunderstorm BKN045 BKN050 OVC070 89.6 -23.8 1% 86 30.02 0.0
21 14:55 S 7 G 14 10.00 Thunderstorm in Vicinity OVC042 87.8 -11.2 2% 85 30.02 0.0
21 14:35 SE 5 10.00 Mostly Cloudy SCT042 BKN065 BKN080 93.2 -22 1% 89 30.03 0.0
21 14:15 E 9 G 21 10.00 Partly Cloudy SCT038 SCT060 SCT070 93.2 -9.4 2% 89 30.03 0.0
21 13:55 Vrbl 5 G 13 10.00 Mostly Cloudy SCT038 SCT055 BKN075 93.2 46.4 20% 90 30.04 0.0
21 13:35 Vrbl 6 10.00 Mostly Cloudy SCT038 BKN049 BKN060 91.4 69.8 49% 97 30.04 0.0
21 13:15 Vrbl 6 10.00 Mostly Cloudy BKN038 BKN048 93.2 71.6 50% 101 30.05 0.0
21 12:55 Calm 10.00 Thunderstorm in Vicinity BKN037 BKN060 91.4 71.6 52% 99 30.06 0.0
21 12:35 Vrbl 5 10.00 Partly Cloudy SCT038 SCT055 93.2 73.4 53% 103 30.06 0.0
21 12:15 Vrbl 5 10.00 A Few Clouds FEW036 FEW050 93.2 73.4 53% 103 30.07 0.0
21 11:55 Vrbl 6 10.00 Partly Cloudy FEW036 SCT049 93.2 73.4 53% 103 30.07 0.0
21 11:35 Calm 10.00 A Few Clouds FEW029 FEW045 91.4 75.2 59% 103 30.07 0.0
21 11:15 Calm 10.00 A Few Clouds FEW040 91.4 75.2 59% 103 30.07 0.0
Date Time (edt) Wind (mph) Vis. (mi.) Weather Sky Cond. Air Dwpt Max. Min. Relative Humidity Wind Chill (°F) Heat Index (°F) altimeter (in) sea level (mb) 1 hr 3 hr 6 hr
6 hour
Temperature (ºF) Pressure Precipitation (in)